Location: ??????
(42.0089°N, 44.3281°E)
Time: 17:18:40
(UTC+00:00)

USA 267 - Pass Details

Date: 30 May 2022
Orbit: 1101 x 1106 km, 123.0° (Epoch: 28 June)

Event Time Altitude Azimuth Distance (km) Brightness Sun altitude
Rises 19:31:17 0° 82° (E) 3,917 6.0 -22.9°
Reaches altitude 10° 19:34:06 10° 71° (ENE) 2,960 5.5 -23.1°
Maximum altitude 19:39:29 28° 16° (NNE) 1,921 5.0 -23.5°
Drops below altitude 10° 19:44:52 10° 320° (NW) 2,966 6.5 -23.8°
Sets 19:47:41 0° 310° (NW) 3,925 7.1 -24.0°
